Year,Month,Day,Hour,Minute,Value (Times are PST for temperature in C)
2018,12,14,00,00,7.30
2018,12,14,00,01,7.30
2018,12,14,00,02,7.30
2018,12,14,00,03,7.30
2018,12,14,00,04,7.30
2018,12,14,00,05,7.30
2018,12,14,00,06,7.30
2018,12,14,00,07,7.30
2018,12,14,00,08,7.30
2018,12,14,00,09,7.30
2018,12,14,00,10,7.30
2018,12,14,00,11,7.30
2018,12,14,00,12,7.30
2018,12,14,00,13,7.30
2018,12,14,00,14,7.30
2018,12,14,00,15,7.30
2018,12,14,00,16,7.30
2018,12,14,00,17,7.30
2018,12,14,00,18,7.30
2018,12,14,00,19,7.30
2018,12,14,00,20,7.30
2018,12,14,00,21,7.30
2018,12,14,00,22,7.30
2018,12,14,00,23,7.30
2018,12,14,00,24,7.30
2018,12,14,00,25,7.30
2018,12,14,00,26,7.30
2018,12,14,00,27,7.30
2018,12,14,00,28,7.30
2018,12,14,00,29,7.30
2018,12,14,00,30,7.30
2018,12,14,00,31,7.30
2018,12,14,00,32,7.30
2018,12,14,00,33,7.30
2018,12,14,00,34,7.30
2018,12,14,00,35,7.30
2018,12,14,00,36,7.30
2018,12,14,00,37,7.30
2018,12,14,00,38,7.30
2018,12,14,00,39,7.30
2018,12,14,00,40,7.30
2018,12,14,00,41,7.30
2018,12,14,00,42,7.30
2018,12,14,00,43,7.30
2018,12,14,00,44,7.30
2018,12,14,00,45,7.30
2018,12,14,00,46,7.30
2018,12,14,00,47,7.20
2018,12,14,00,48,7.20
2018,12,14,00,49,7.20
2018,12,14,00,50,7.20
2018,12,14,00,51,7.20
2018,12,14,00,52,7.20
2018,12,14,00,53,7.20
2018,12,14,00,54,7.20
2018,12,14,00,55,7.20
2018,12,14,00,56,7.20
2018,12,14,00,57,7.20
2018,12,14,00,58,7.20
2018,12,14,00,59,7.20
2018,12,14,01,00,7.20
2018,12,14,01,01,7.20
2018,12,14,01,02,7.20
2018,12,14,01,03,7.20
2018,12,14,01,04,7.20
2018,12,14,01,05,7.20
2018,12,14,01,06,7.20
2018,12,14,01,07,7.20
2018,12,14,01,08,7.20
2018,12,14,01,09,7.20
2018,12,14,01,10,7.20
2018,12,14,01,11,7.20
2018,12,14,01,12,7.20
2018,12,14,01,13,7.20
2018,12,14,01,14,7.20
2018,12,14,01,15,7.20
2018,12,14,01,16,7.20
2018,12,14,01,17,7.20
2018,12,14,01,18,7.20
2018,12,14,01,19,7.20
2018,12,14,01,20,7.20
2018,12,14,01,21,7.20
2018,12,14,01,22,7.10
2018,12,14,01,23,7.10
2018,12,14,01,24,7.10
2018,12,14,01,25,7.10
2018,12,14,01,26,7.10
2018,12,14,01,27,7.10
2018,12,14,01,28,7.10
2018,12,14,01,29,7.10
2018,12,14,01,30,7.10
2018,12,14,01,31,7.10
2018,12,14,01,32,7.10
2018,12,14,01,33,7.10
2018,12,14,01,34,7.10
2018,12,14,01,35,7.10
2018,12,14,01,36,7.10
2018,12,14,01,37,7.10
2018,12,14,01,38,7.10
2018,12,14,01,39,7.10
2018,12,14,01,40,7.10
2018,12,14,01,41,7.10
2018,12,14,01,42,7.10
2018,12,14,01,43,7.20
2018,12,14,01,44,7.20
2018,12,14,01,45,7.20
2018,12,14,01,46,7.20
2018,12,14,01,47,7.20
2018,12,14,01,48,7.20
2018,12,14,01,49,7.20
2018,12,14,01,50,7.20
2018,12,14,01,51,7.20
2018,12,14,01,52,7.20
2018,12,14,01,53,7.20
2018,12,14,01,54,7.20
2018,12,14,01,55,7.20
2018,12,14,01,56,7.20
2018,12,14,01,57,7.20
2018,12,14,01,58,7.20
2018,12,14,01,59,7.30
2018,12,14,02,00,7.30
2018,12,14,02,01,7.30
2018,12,14,02,02,7.30
2018,12,14,02,03,7.30
2018,12,14,02,04,7.30
2018,12,14,02,05,7.30
2018,12,14,02,06,7.30
2018,12,14,02,07,7.30
2018,12,14,02,08,7.30
2018,12,14,02,09,7.30
2018,12,14,02,10,7.30
2018,12,14,02,11,7.30
2018,12,14,02,12,7.30
2018,12,14,02,13,7.30
2018,12,14,02,14,7.30
2018,12,14,02,15,7.30
2018,12,14,02,16,7.30
2018,12,14,02,17,7.30
2018,12,14,02,18,7.30
2018,12,14,02,19,7.30
2018,12,14,02,20,7.30
2018,12,14,02,21,7.30
2018,12,14,02,22,7.30
2018,12,14,02,23,7.30
2018,12,14,02,24,7.30
2018,12,14,02,25,7.30
2018,12,14,02,26,7.30
2018,12,14,02,27,7.30
2018,12,14,02,28,7.30
2018,12,14,02,29,7.30
2018,12,14,02,30,7.30
2018,12,14,02,31,7.30
2018,12,14,02,32,7.30
2018,12,14,02,33,7.30
2018,12,14,02,34,7.30
2018,12,14,02,35,7.20
2018,12,14,02,36,7.20
2018,12,14,02,37,7.20
2018,12,14,02,38,7.20
2018,12,14,02,39,7.20
2018,12,14,02,40,7.20
2018,12,14,02,41,7.20
2018,12,14,02,42,7.20
2018,12,14,02,43,7.20
2018,12,14,02,44,7.10
2018,12,14,02,45,7.10
2018,12,14,02,46,7.10
2018,12,14,02,47,7.10
2018,12,14,02,48,7.10
2018,12,14,02,49,7.00
2018,12,14,02,50,7.00
2018,12,14,02,51,7.00
2018,12,14,02,52,7.00
2018,12,14,02,53,6.90
2018,12,14,02,54,6.90
2018,12,14,02,55,6.90
2018,12,14,02,56,6.90
2018,12,14,02,57,6.90
2018,12,14,02,58,6.90
2018,12,14,02,59,6.80
2018,12,14,03,00,6.80
2018,12,14,03,01,6.80
2018,12,14,03,02,6.80
2018,12,14,03,03,6.80
2018,12,14,03,04,6.80
2018,12,14,03,05,6.80
2018,12,14,03,06,6.80
2018,12,14,03,07,6.80
2018,12,14,03,08,6.80
2018,12,14,03,09,6.80
2018,12,14,03,10,6.80
2018,12,14,03,11,6.70
2018,12,14,03,12,6.70
2018,12,14,03,13,6.70
2018,12,14,03,14,6.70
2018,12,14,03,15,6.70
2018,12,14,03,16,6.70
2018,12,14,03,17,6.70
2018,12,14,03,18,6.70
2018,12,14,03,19,6.70
2018,12,14,03,20,6.70
2018,12,14,03,21,6.70
2018,12,14,03,22,6.70
2018,12,14,03,23,6.70
2018,12,14,03,24,6.70
2018,12,14,03,25,6.70
2018,12,14,03,26,6.70
2018,12,14,03,27,6.70
2018,12,14,03,28,6.70
2018,12,14,03,29,6.60
2018,12,14,03,30,6.60
2018,12,14,03,31,6.60
2018,12,14,03,32,6.60
2018,12,14,03,33,6.60
2018,12,14,03,34,6.60
2018,12,14,03,35,6.60
2018,12,14,03,36,6.60
2018,12,14,03,37,6.60
2018,12,14,03,38,6.60
2018,12,14,03,39,6.60
2018,12,14,03,40,6.60
2018,12,14,03,41,6.50
2018,12,14,03,42,6.50
2018,12,14,03,43,6.50
2018,12,14,03,44,6.50
2018,12,14,03,45,6.50
2018,12,14,03,46,6.50
2018,12,14,03,47,6.50
2018,12,14,03,48,6.50
2018,12,14,03,49,6.50
2018,12,14,03,50,6.50
2018,12,14,03,51,6.50
2018,12,14,03,52,6.50
2018,12,14,03,53,6.40
2018,12,14,03,54,6.40
2018,12,14,03,55,6.40
2018,12,14,03,56,6.40
2018,12,14,03,57,6.40
2018,12,14,03,58,6.40
2018,12,14,03,59,6.40
2018,12,14,04,00,6.40
2018,12,14,04,01,6.40
2018,12,14,04,02,6.40
2018,12,14,04,03,6.40
2018,12,14,04,04,6.30
2018,12,14,04,05,6.30
2018,12,14,04,06,6.30
2018,12,14,04,07,6.30
2018,12,14,04,08,6.40
2018,12,14,04,09,6.40
2018,12,14,04,10,6.40
2018,12,14,04,11,6.40
2018,12,14,04,12,6.30
2018,12,14,04,13,6.30
2018,12,14,04,14,6.30
2018,12,14,04,15,6.40
2018,12,14,04,16,6.40
2018,12,14,04,17,6.40
2018,12,14,04,18,6.40
2018,12,14,04,19,6.30
2018,12,14,04,20,6.30
2018,12,14,04,21,6.30
2018,12,14,04,22,6.30
2018,12,14,04,23,6.30
2018,12,14,04,24,6.30
2018,12,14,04,25,6.30
2018,12,14,04,26,6.40
2018,12,14,04,27,6.40
2018,12,14,04,28,6.40
2018,12,14,04,29,6.30
2018,12,14,04,30,6.30
2018,12,14,04,31,6.30
2018,12,14,04,32,6.30
2018,12,14,04,33,6.20
2018,12,14,04,34,6.20
2018,12,14,04,35,6.20
2018,12,14,04,36,6.20
2018,12,14,04,37,6.30
2018,12,14,04,38,6.30
2018,12,14,04,39,6.30
2018,12,14,04,40,6.30
2018,12,14,04,41,6.30
2018,12,14,04,42,6.30
2018,12,14,04,43,6.30
2018,12,14,04,44,6.30
2018,12,14,04,45,6.20
2018,12,14,04,46,6.20
2018,12,14,04,47,6.20
2018,12,14,04,48,6.20
2018,12,14,04,49,6.20
2018,12,14,04,50,6.10
2018,12,14,04,51,6.10
2018,12,14,04,52,6.10
2018,12,14,04,53,6.10
2018,12,14,04,54,6.10
2018,12,14,04,55,6.10
2018,12,14,04,56,6.10
2018,12,14,04,57,6.10
2018,12,14,04,58,6.10
2018,12,14,04,59,6.10
2018,12,14,05,00,6.10
2018,12,14,05,01,6.10
2018,12,14,05,02,6.10
2018,12,14,05,03,6.10
2018,12,14,05,04,6.00
2018,12,14,05,05,6.00
2018,12,14,05,06,6.00
2018,12,14,05,07,6.10
2018,12,14,05,08,6.10
2018,12,14,05,09,6.10
2018,12,14,05,10,6.00
2018,12,14,05,11,6.00
2018,12,14,05,12,6.00
2018,12,14,05,13,6.00
2018,12,14,05,14,6.00
2018,12,14,05,15,6.00
2018,12,14,05,16,6.00
2018,12,14,05,17,6.00
2018,12,14,05,18,5.90
2018,12,14,05,19,5.90
2018,12,14,05,20,5.90
2018,12,14,05,21,5.90
2018,12,14,05,22,5.90
2018,12,14,05,23,5.90
2018,12,14,05,24,5.90
2018,12,14,05,25,5.90
2018,12,14,05,26,5.80
2018,12,14,05,27,5.80
2018,12,14,05,28,5.80
2018,12,14,05,29,5.80
2018,12,14,05,30,5.80
2018,12,14,05,31,5.80
2018,12,14,05,32,5.80
2018,12,14,05,33,5.80
2018,12,14,05,34,5.80
2018,12,14,05,35,5.80
2018,12,14,05,36,5.80
2018,12,14,05,37,5.80
2018,12,14,05,38,5.80
2018,12,14,05,39,5.80
2018,12,14,05,40,5.80
2018,12,14,05,41,5.80
2018,12,14,05,42,5.70
2018,12,14,05,43,5.70
2018,12,14,05,44,5.70
2018,12,14,05,45,5.70
2018,12,14,05,46,5.70
2018,12,14,05,47,5.70
2018,12,14,05,48,5.70
2018,12,14,05,49,5.70
2018,12,14,05,50,5.70
2018,12,14,05,51,5.70
2018,12,14,05,52,5.70
2018,12,14,05,53,5.70
2018,12,14,05,54,5.70
2018,12,14,05,55,5.70
2018,12,14,05,56,5.70
2018,12,14,05,57,5.70
2018,12,14,05,58,5.70
2018,12,14,05,59,5.60
2018,12,14,06,00,5.60
2018,12,14,06,01,5.60
2018,12,14,06,02,5.60
2018,12,14,06,03,5.60
2018,12,14,06,04,5.60
2018,12,14,06,05,5.60
2018,12,14,06,06,5.60
2018,12,14,06,07,5.60
2018,12,14,06,08,5.60
2018,12,14,06,09,5.60
2018,12,14,06,10,5.60
2018,12,14,06,11,5.60
2018,12,14,06,12,5.60
2018,12,14,06,13,5.60
2018,12,14,06,14,5.60
2018,12,14,06,15,5.60
2018,12,14,06,16,5.60
2018,12,14,06,17,5.60
2018,12,14,06,18,5.60
2018,12,14,06,19,5.60
2018,12,14,06,20,5.60
2018,12,14,06,21,5.60
2018,12,14,06,22,5.60
2018,12,14,06,23,5.60
2018,12,14,06,24,5.60
2018,12,14,06,25,5.60
2018,12,14,06,26,5.60
2018,12,14,06,27,5.60
2018,12,14,06,28,5.60
2018,12,14,06,29,5.60
2018,12,14,06,30,5.60
2018,12,14,06,31,5.60
2018,12,14,06,32,5.60
2018,12,14,06,33,5.60
2018,12,14,06,34,5.60
2018,12,14,06,35,5.60
2018,12,14,06,36,5.60
2018,12,14,06,37,5.60
2018,12,14,06,38,5.60
2018,12,14,06,39,5.60
2018,12,14,06,40,5.60
2018,12,14,06,41,5.60
2018,12,14,06,42,5.60
2018,12,14,06,43,5.60
2018,12,14,06,44,5.60
2018,12,14,06,45,5.60
2018,12,14,06,46,5.60
2018,12,14,06,47,5.60
2018,12,14,06,48,5.60
2018,12,14,06,49,5.60
2018,12,14,06,50,5.60
2018,12,14,06,51,5.60
2018,12,14,06,52,5.60
2018,12,14,06,53,5.70
2018,12,14,06,54,5.70
2018,12,14,06,55,5.60
2018,12,14,06,56,5.60
2018,12,14,06,57,5.60
2018,12,14,06,58,5.60
2018,12,14,06,59,5.60
2018,12,14,07,00,5.60
2018,12,14,07,01,5.60
2018,12,14,07,02,5.60
2018,12,14,07,03,5.60
2018,12,14,07,04,5.70
2018,12,14,07,05,5.70
2018,12,14,07,06,5.60
2018,12,14,07,07,5.60
2018,12,14,07,08,5.60
2018,12,14,07,09,5.60
2018,12,14,07,10,5.60
2018,12,14,07,11,5.60
2018,12,14,07,12,5.60
2018,12,14,07,13,5.60
2018,12,14,07,14,5.60
2018,12,14,07,15,5.60
2018,12,14,07,16,5.60
2018,12,14,07,17,5.60
2018,12,14,07,18,5.60
2018,12,14,07,19,5.60
2018,12,14,07,20,5.60
2018,12,14,07,21,5.60
2018,12,14,07,22,5.60
2018,12,14,07,23,5.60
2018,12,14,07,24,5.60
2018,12,14,07,25,5.60
2018,12,14,07,26,5.60
2018,12,14,07,27,5.60
2018,12,14,07,28,5.60
2018,12,14,07,29,5.60
2018,12,14,07,30,5.60
2018,12,14,07,31,5.60
2018,12,14,07,32,5.60
2018,12,14,07,33,5.60
2018,12,14,07,34,5.60
2018,12,14,07,35,5.60
2018,12,14,07,36,5.60
2018,12,14,07,37,5.60
2018,12,14,07,38,5.60
2018,12,14,07,39,5.60
2018,12,14,07,40,5.60
2018,12,14,07,41,5.60
2018,12,14,07,42,5.60
2018,12,14,07,43,5.50
2018,12,14,07,44,5.50
2018,12,14,07,45,5.50
2018,12,14,07,46,5.50
2018,12,14,07,47,5.50
2018,12,14,07,48,5.50
2018,12,14,07,49,5.40
2018,12,14,07,50,5.40
2018,12,14,07,51,5.40
2018,12,14,07,52,5.40
2018,12,14,07,53,5.40
2018,12,14,07,54,5.40
2018,12,14,07,55,5.40
2018,12,14,07,56,5.40
2018,12,14,07,57,5.40
2018,12,14,07,58,5.40
2018,12,14,07,59,5.50
2018,12,14,08,00,5.50
2018,12,14,08,01,5.50
2018,12,14,08,02,5.40
2018,12,14,08,03,5.40
2018,12,14,08,04,5.40
2018,12,14,08,05,5.40
2018,12,14,08,06,5.40
2018,12,14,08,07,5.40
2018,12,14,08,08,5.40
2018,12,14,08,09,5.40
2018,12,14,08,10,5.40
2018,12,14,08,11,5.40
2018,12,14,08,12,5.40
2018,12,14,08,13,5.40
2018,12,14,08,14,5.40
2018,12,14,08,15,5.40
2018,12,14,08,16,5.40
2018,12,14,08,17,5.40
2018,12,14,08,18,5.40
2018,12,14,08,19,5.30
2018,12,14,08,20,5.30
2018,12,14,08,21,5.30
2018,12,14,08,22,5.30
2018,12,14,08,23,5.30
2018,12,14,08,24,5.40
2018,12,14,08,25,5.40
2018,12,14,08,26,5.40
2018,12,14,08,27,5.30
2018,12,14,08,28,5.40
2018,12,14,08,29,5.40
2018,12,14,08,30,5.40
2018,12,14,08,31,5.40
2018,12,14,08,32,5.40
2018,12,14,08,33,5.40
2018,12,14,08,34,5.40
2018,12,14,08,35,5.40
2018,12,14,08,36,5.40
2018,12,14,08,37,5.40
2018,12,14,08,38,5.40
2018,12,14,08,39,5.40
2018,12,14,08,40,5.40
2018,12,14,08,41,5.40
2018,12,14,08,42,5.40
2018,12,14,08,43,5.40
2018,12,14,08,44,5.40
2018,12,14,08,45,5.40
2018,12,14,08,46,5.40
2018,12,14,08,47,5.40
2018,12,14,08,48,5.40
2018,12,14,08,49,5.50
2018,12,14,08,50,5.50
2018,12,14,08,51,5.50
2018,12,14,08,52,5.50
2018,12,14,08,53,5.60
2018,12,14,08,54,5.60
2018,12,14,08,55,5.60
2018,12,14,08,56,5.60
2018,12,14,08,57,5.60
2018,12,14,08,58,5.60
2018,12,14,08,59,5.60
2018,12,14,09,00,5.60
2018,12,14,09,01,5.60
2018,12,14,09,02,5.60
2018,12,14,09,03,5.60
2018,12,14,09,04,5.60
2018,12,14,09,05,5.60
2018,12,14,09,06,5.60
2018,12,14,09,07,5.70
2018,12,14,09,08,5.70
2018,12,14,09,09,5.70
2018,12,14,09,10,5.70
2018,12,14,09,11,5.70
2018,12,14,09,12,5.70
2018,12,14,09,13,5.70
2018,12,14,09,14,5.70
2018,12,14,09,15,5.70
2018,12,14,09,16,5.80
2018,12,14,09,17,5.80
2018,12,14,09,18,5.80
2018,12,14,09,19,5.80
2018,12,14,09,20,5.80
2018,12,14,09,21,5.80
2018,12,14,09,22,5.80
2018,12,14,09,23,5.90
2018,12,14,09,24,5.90
2018,12,14,09,25,5.90
2018,12,14,09,26,5.80
2018,12,14,09,27,5.80
2018,12,14,09,28,5.80
2018,12,14,09,29,5.80
2018,12,14,09,30,5.80
2018,12,14,09,31,5.80
2018,12,14,09,32,5.80
2018,12,14,09,33,5.80
2018,12,14,09,34,5.90
2018,12,14,09,35,5.80
2018,12,14,09,36,5.80
2018,12,14,09,37,5.80
2018,12,14,09,38,5.90
2018,12,14,09,39,5.90
2018,12,14,09,40,5.90
2018,12,14,09,41,5.90
2018,12,14,09,42,5.90
2018,12,14,09,43,5.90
2018,12,14,09,44,5.90
2018,12,14,09,45,5.90
2018,12,14,09,46,5.90
2018,12,14,09,47,5.90
2018,12,14,09,48,5.90
2018,12,14,09,49,5.90
2018,12,14,09,50,6.00
2018,12,14,09,51,6.00
2018,12,14,09,52,6.00
2018,12,14,09,53,6.00
2018,12,14,09,54,6.00
2018,12,14,09,55,6.10
2018,12,14,09,56,6.10
2018,12,14,09,57,6.20
2018,12,14,09,58,6.20
2018,12,14,09,59,6.20
2018,12,14,10,00,6.20
2018,12,14,10,01,6.20
2018,12,14,10,02,6.20
2018,12,14,10,03,6.20
2018,12,14,10,04,6.20
2018,12,14,10,05,6.20
2018,12,14,10,06,6.20
2018,12,14,10,07,6.20
2018,12,14,10,08,6.30
2018,12,14,10,09,6.30
2018,12,14,10,10,6.30
2018,12,14,10,11,6.30
2018,12,14,10,12,6.30
2018,12,14,10,13,6.40
2018,12,14,10,14,6.40
2018,12,14,10,15,6.40
2018,12,14,10,16,6.40
2018,12,14,10,17,6.40
2018,12,14,10,18,6.40
2018,12,14,10,19,6.40
2018,12,14,10,20,6.40
2018,12,14,10,21,6.40
2018,12,14,10,22,6.40
2018,12,14,10,23,6.40
2018,12,14,10,24,6.40
2018,12,14,10,25,6.40
2018,12,14,10,26,6.30
2018,12,14,10,27,6.30
2018,12,14,10,28,6.30
2018,12,14,10,29,6.40
2018,12,14,10,30,6.40
2018,12,14,10,31,6.40
2018,12,14,10,32,6.40
2018,12,14,10,33,6.40
2018,12,14,10,34,6.40
2018,12,14,10,35,6.40
2018,12,14,10,36,6.40
2018,12,14,10,37,6.40
2018,12,14,10,38,6.50
2018,12,14,10,39,6.50
2018,12,14,10,40,6.50
2018,12,14,10,41,6.50
2018,12,14,10,42,6.50
2018,12,14,10,43,6.50
2018,12,14,10,44,6.50
2018,12,14,10,45,6.50
2018,12,14,10,46,6.50
2018,12,14,10,47,6.50
2018,12,14,10,48,6.60
2018,12,14,10,49,6.60
2018,12,14,10,50,6.60
2018,12,14,10,51,6.60
2018,12,14,10,52,6.60
2018,12,14,10,53,6.60
2018,12,14,10,54,6.60
2018,12,14,10,55,6.60
2018,12,14,10,56,6.60
2018,12,14,10,57,6.60
2018,12,14,10,58,6.60
2018,12,14,10,59,6.60
2018,12,14,11,00,6.60
2018,12,14,11,01,6.60
2018,12,14,11,02,6.70
2018,12,14,11,03,6.70
2018,12,14,11,04,6.70
2018,12,14,11,05,6.70
2018,12,14,11,06,6.70
2018,12,14,11,07,6.70
2018,12,14,11,08,6.70
2018,12,14,11,09,6.70
2018,12,14,11,10,6.70
2018,12,14,11,11,6.70
2018,12,14,11,12,6.70
2018,12,14,11,13,6.70
2018,12,14,11,14,6.70
2018,12,14,11,15,6.70
2018,12,14,11,16,6.70
2018,12,14,11,17,6.70
2018,12,14,11,18,6.70
2018,12,14,11,19,6.70
2018,12,14,11,20,6.70
2018,12,14,11,21,6.70
2018,12,14,11,22,6.80
2018,12,14,11,23,6.80
2018,12,14,11,24,6.80
2018,12,14,11,25,6.80
2018,12,14,11,26,6.80
2018,12,14,11,27,6.80
2018,12,14,11,28,6.80
2018,12,14,11,29,6.90
2018,12,14,11,30,6.90
2018,12,14,11,31,6.90
2018,12,14,11,32,6.90
2018,12,14,11,33,6.90
2018,12,14,11,34,6.90
2018,12,14,11,35,6.90
2018,12,14,11,36,6.90
2018,12,14,11,37,6.90
2018,12,14,11,38,6.90
2018,12,14,11,39,6.90
2018,12,14,11,40,7.00
2018,12,14,11,41,7.00
2018,12,14,11,42,7.00
2018,12,14,11,43,7.00
2018,12,14,11,44,7.00
2018,12,14,11,45,7.00
2018,12,14,11,46,7.00
2018,12,14,11,47,7.00
2018,12,14,11,48,7.00
2018,12,14,11,49,7.00
2018,12,14,11,50,7.10
2018,12,14,11,51,7.10
2018,12,14,11,52,7.10
2018,12,14,11,53,7.10
2018,12,14,11,54,7.10
2018,12,14,11,55,7.10
2018,12,14,11,56,7.10
2018,12,14,11,57,7.10
2018,12,14,11,58,7.10
2018,12,14,11,59,7.10
2018,12,14,12,00,7.20
2018,12,14,12,01,7.20
2018,12,14,12,02,7.20
2018,12,14,12,03,7.20
2018,12,14,12,04,7.20
2018,12,14,12,05,7.20
2018,12,14,12,06,7.20
2018,12,14,12,07,7.30
2018,12,14,12,08,7.30
2018,12,14,12,09,7.30
2018,12,14,12,10,7.30
2018,12,14,12,11,7.30
2018,12,14,12,12,7.30
2018,12,14,12,13,7.30
2018,12,14,12,14,7.30
2018,12,14,12,15,7.40
2018,12,14,12,16,7.40
2018,12,14,12,17,7.40
2018,12,14,12,18,7.40
2018,12,14,12,19,7.40
2018,12,14,12,20,7.40
2018,12,14,12,21,7.40
2018,12,14,12,22,7.40
2018,12,14,12,23,7.40
2018,12,14,12,24,7.50
2018,12,14,12,25,7.50
2018,12,14,12,26,7.50
2018,12,14,12,27,7.50
2018,12,14,12,28,7.60
2018,12,14,12,29,7.60
2018,12,14,12,30,7.60
2018,12,14,12,31,7.60
2018,12,14,12,32,7.60
2018,12,14,12,33,7.70
2018,12,14,12,34,7.70
2018,12,14,12,35,7.70
2018,12,14,12,36,7.80
2018,12,14,12,37,7.80
2018,12,14,12,38,7.80
2018,12,14,12,39,7.90
2018,12,14,12,40,7.90
2018,12,14,12,41,7.90
2018,12,14,12,42,7.90
2018,12,14,12,43,8.00
2018,12,14,12,44,8.00
2018,12,14,12,45,8.10
2018,12,14,12,46,8.10
2018,12,14,12,47,8.10
2018,12,14,12,48,8.20
2018,12,14,12,49,8.20
2018,12,14,12,50,8.20
2018,12,14,12,51,8.20
2018,12,14,12,52,8.20
2018,12,14,12,53,8.20
2018,12,14,12,54,8.20
2018,12,14,12,55,8.20
2018,12,14,12,56,8.20
2018,12,14,12,57,8.20
2018,12,14,12,58,8.20
2018,12,14,12,59,8.20
2018,12,14,13,00,8.30
2018,12,14,13,01,8.30
2018,12,14,13,02,8.30
2018,12,14,13,03,8.30
2018,12,14,13,04,8.30
2018,12,14,13,05,8.30
2018,12,14,13,06,8.30
2018,12,14,13,07,8.30
2018,12,14,13,08,8.30
2018,12,14,13,09,8.30
2018,12,14,13,10,8.30
2018,12,14,13,11,8.40
2018,12,14,13,12,8.40
2018,12,14,13,13,8.40
2018,12,14,13,14,8.40
2018,12,14,13,15,8.40
2018,12,14,13,16,8.40
2018,12,14,13,17,8.40
2018,12,14,13,18,8.40
2018,12,14,13,19,8.40
2018,12,14,13,20,8.40
2018,12,14,13,21,8.40
2018,12,14,13,22,8.40
2018,12,14,13,23,8.50
2018,12,14,13,24,8.50
2018,12,14,13,25,8.50
2018,12,14,13,26,8.50
2018,12,14,13,27,8.50
2018,12,14,13,28,8.60
2018,12,14,13,29,8.60
2018,12,14,13,30,8.60
2018,12,14,13,31,8.70
2018,12,14,13,32,8.70
2018,12,14,13,33,8.70
2018,12,14,13,34,8.80
2018,12,14,13,35,8.80
2018,12,14,13,36,8.80
2018,12,14,13,37,8.80
2018,12,14,13,38,8.80
2018,12,14,13,39,8.80
2018,12,14,13,40,8.80
2018,12,14,13,41,8.80
2018,12,14,13,42,8.80
2018,12,14,13,43,8.80
2018,12,14,13,44,8.80
2018,12,14,13,45,8.80
2018,12,14,13,46,8.80
2018,12,14,13,47,8.80
2018,12,14,13,48,8.80
2018,12,14,13,49,8.80
2018,12,14,13,50,8.80
2018,12,14,13,51,8.80
2018,12,14,13,52,8.80
2018,12,14,13,53,8.80
2018,12,14,13,54,8.80
2018,12,14,13,55,8.80
2018,12,14,13,56,8.80
2018,12,14,13,57,8.80
2018,12,14,13,58,8.80
2018,12,14,13,59,8.80
2018,12,14,14,00,8.80
2018,12,14,14,01,8.90
2018,12,14,14,02,8.90
2018,12,14,14,03,8.90
2018,12,14,14,04,8.90
2018,12,14,14,05,8.90
2018,12,14,14,06,8.90
2018,12,14,14,07,8.90
2018,12,14,14,08,8.90
2018,12,14,14,09,8.90
2018,12,14,14,10,8.90
2018,12,14,14,11,8.90
2018,12,14,14,12,8.90
2018,12,14,14,13,8.90
2018,12,14,14,14,8.90
2018,12,14,14,15,8.90
2018,12,14,14,16,8.90
2018,12,14,14,17,9.00
2018,12,14,14,18,8.90
2018,12,14,14,19,9.00
2018,12,14,14,20,9.00
2018,12,14,14,21,9.00
2018,12,14,14,22,9.00
2018,12,14,14,23,9.00
2018,12,14,14,24,9.00
2018,12,14,14,25,9.00
2018,12,14,14,26,9.10
2018,12,14,14,27,9.00
2018,12,14,14,28,9.00
2018,12,14,14,29,9.00
2018,12,14,14,30,9.00
2018,12,14,14,31,9.00
2018,12,14,14,32,8.90
2018,12,14,14,33,8.90
2018,12,14,14,34,8.90
2018,12,14,14,35,8.90
2018,12,14,14,36,8.90
2018,12,14,14,37,8.90
2018,12,14,14,38,8.90
2018,12,14,14,39,8.90
2018,12,14,14,40,8.90
2018,12,14,14,41,8.90
2018,12,14,14,42,8.90
2018,12,14,14,43,8.90
2018,12,14,14,44,8.80
2018,12,14,14,45,8.80
2018,12,14,14,46,8.80
2018,12,14,14,47,8.80
2018,12,14,14,48,8.70
2018,12,14,14,49,8.70
2018,12,14,14,50,8.70
2018,12,14,14,51,8.70
2018,12,14,14,52,8.70
2018,12,14,14,53,8.70
2018,12,14,14,54,8.70
2018,12,14,14,55,8.70
2018,12,14,14,56,8.70
2018,12,14,14,57,8.70
2018,12,14,14,58,8.70
2018,12,14,14,59,8.60
2018,12,14,15,00,8.60
2018,12,14,15,01,8.60
2018,12,14,15,02,8.60
2018,12,14,15,03,8.60
2018,12,14,15,04,8.50
2018,12,14,15,05,8.50
2018,12,14,15,06,8.40
2018,12,14,15,07,8.40
2018,12,14,15,08,8.40
2018,12,14,15,09,8.30
2018,12,14,15,10,8.30
2018,12,14,15,11,8.30
2018,12,14,15,12,8.30
2018,12,14,15,13,8.30
2018,12,14,15,14,8.30
2018,12,14,15,15,8.30
2018,12,14,15,16,8.30
2018,12,14,15,17,8.30
2018,12,14,15,18,8.30
2018,12,14,15,19,8.40
2018,12,14,15,20,8.40
2018,12,14,15,21,8.40
2018,12,14,15,22,8.40
2018,12,14,15,23,8.40
2018,12,14,15,24,8.40
2018,12,14,15,25,8.40
2018,12,14,15,26,8.40
2018,12,14,15,27,8.40
2018,12,14,15,28,8.40
2018,12,14,15,29,8.40
2018,12,14,15,30,8.40
2018,12,14,15,31,8.40
2018,12,14,15,32,8.40
2018,12,14,15,33,8.40
2018,12,14,15,34,8.40
2018,12,14,15,35,8.40
2018,12,14,15,36,8.30
2018,12,14,15,37,8.30
2018,12,14,15,38,8.30
2018,12,14,15,39,8.30
2018,12,14,15,40,8.30
2018,12,14,15,41,8.30
2018,12,14,15,42,8.30
2018,12,14,15,43,8.30
2018,12,14,15,44,8.30
2018,12,14,15,45,8.30
2018,12,14,15,46,8.30
2018,12,14,15,47,8.30
2018,12,14,15,48,8.30
2018,12,14,15,49,8.40
2018,12,14,15,50,8.40
2018,12,14,15,51,8.50
2018,12,14,15,52,8.50
2018,12,14,15,53,8.50
2018,12,14,15,54,8.50
2018,12,14,15,55,8.60
2018,12,14,15,56,8.60
2018,12,14,15,57,8.60
2018,12,14,15,58,8.60
2018,12,14,15,59,8.70
2018,12,14,16,00,8.70
2018,12,14,16,01,8.70
2018,12,14,16,02,8.70
2018,12,14,16,03,8.70
2018,12,14,16,04,8.70
2018,12,14,16,05,8.70
2018,12,14,16,06,8.70
2018,12,14,16,07,8.70
2018,12,14,16,08,8.60
2018,12,14,16,09,8.60
2018,12,14,16,10,8.60
2018,12,14,16,11,8.60
2018,12,14,16,12,8.60
2018,12,14,16,13,8.60
2018,12,14,16,14,8.50
2018,12,14,16,15,8.50
2018,12,14,16,16,8.50
2018,12,14,16,17,8.40
2018,12,14,16,18,8.40
2018,12,14,16,19,8.40
2018,12,14,16,20,8.40
2018,12,14,16,21,8.40
2018,12,14,16,22,8.30
2018,12,14,16,23,8.30
2018,12,14,16,24,8.30
2018,12,14,16,25,8.30
2018,12,14,16,26,8.30
2018,12,14,16,27,8.30
2018,12,14,16,28,8.30
2018,12,14,16,29,8.30
2018,12,14,16,30,8.30
2018,12,14,16,31,8.20
2018,12,14,16,32,8.20
2018,12,14,16,33,8.20
2018,12,14,16,34,8.20
2018,12,14,16,35,8.20
2018,12,14,16,36,8.20
2018,12,14,16,37,8.20
2018,12,14,16,38,8.20
2018,12,14,16,39,8.20
2018,12,14,16,40,8.10
2018,12,14,16,41,8.10
2018,12,14,16,42,8.10
2018,12,14,16,43,8.10
2018,12,14,16,44,8.10
2018,12,14,16,45,8.10
2018,12,14,16,46,8.10
2018,12,14,16,47,8.00
2018,12,14,16,48,8.00
2018,12,14,16,49,8.00
2018,12,14,16,50,8.00
2018,12,14,16,51,8.00
2018,12,14,16,52,8.00
2018,12,14,16,53,7.90
2018,12,14,16,54,7.90
2018,12,14,16,55,7.90
2018,12,14,16,56,7.90
2018,12,14,16,57,7.90
2018,12,14,16,58,7.90
2018,12,14,16,59,7.90
2018,12,14,17,00,7.90
2018,12,14,17,01,7.90
2018,12,14,17,02,7.90
2018,12,14,17,03,7.80
2018,12,14,17,04,7.80
2018,12,14,17,05,7.80
2018,12,14,17,06,7.80
2018,12,14,17,07,7.80
2018,12,14,17,08,7.80
2018,12,14,17,09,7.80
2018,12,14,17,10,7.80
2018,12,14,17,11,7.80
2018,12,14,17,12,7.80
2018,12,14,17,13,7.80
2018,12,14,17,14,7.80
2018,12,14,17,15,7.80
2018,12,14,17,16,7.80
2018,12,14,17,17,7.70
2018,12,14,17,18,7.70
2018,12,14,17,19,7.70
2018,12,14,17,20,7.70
2018,12,14,17,21,7.70
2018,12,14,17,22,7.70
2018,12,14,17,23,7.70
2018,12,14,17,24,7.70
2018,12,14,17,25,7.70
2018,12,14,17,26,7.70
2018,12,14,17,27,7.70
2018,12,14,17,28,7.70
2018,12,14,17,29,7.70
2018,12,14,17,30,7.80
2018,12,14,17,31,7.80
2018,12,14,17,32,7.80
2018,12,14,17,33,7.80
2018,12,14,17,34,7.80
2018,12,14,17,35,7.80
2018,12,14,17,36,7.80
2018,12,14,17,37,7.80
2018,12,14,17,38,7.80
2018,12,14,17,39,7.80
2018,12,14,17,40,7.80
2018,12,14,17,41,7.80
2018,12,14,17,42,7.80
2018,12,14,17,43,7.90
2018,12,14,17,44,7.90
2018,12,14,17,45,7.90
2018,12,14,17,46,7.90
2018,12,14,17,47,7.90
2018,12,14,17,48,7.90
2018,12,14,17,49,7.90
2018,12,14,17,50,7.90
2018,12,14,17,51,7.90
2018,12,14,17,52,7.90
2018,12,14,17,53,8.00
2018,12,14,17,54,8.00
2018,12,14,17,55,8.00
2018,12,14,17,56,8.00
2018,12,14,17,57,8.00
2018,12,14,17,58,8.10
2018,12,14,17,59,8.10
2018,12,14,18,00,8.10
2018,12,14,18,01,8.10
2018,12,14,18,02,8.10
2018,12,14,18,03,8.10
2018,12,14,18,04,8.10
2018,12,14,18,05,8.10
2018,12,14,18,06,8.10